MUOS-2

Last updated on Sun Jun 21 2026 00:03:05 GMT+0000 (Coordinated Universal Time)

1 39206U 13036A 26171.35478845 -.00000019 00000+0 00000+0 0 9993 2 39206 5.0011 45.5331 0051240 177.3818 345.3547 1.00273721 47226
UTC large
Height (km)
Speed (km/s)
/
Latitude / Longitude
Inclination (degrees)
Orbital Period (minutes)
Azimuth
Elevation
Range (km)
Doppler Factor

Next 0 passes for location: London (51.5072 / 0.1276)

No passes found over London.
MUOS-2